Weather reports worldwide

Advertisment
Skillinge, Sweden (2625): temperature & dewpoint: 08.12.2019 06:00:00 - 14.12.2019 06:00:00 (CET)Skillinge, Sweden (2625): wind speed & gusts: 08.12.2019 06:00:00 - 14.12.2019 06:00:00 (CET)Skillinge, Sweden (2625): wind direction: 08.12.2019 06:00:00 - 14.12.2019 06:00:00 (CET)Skillinge, Sweden (2625): reduced air pressure: 08.12.2019 06:00:00 - 14.12.2019 06:00:00 (CET)Skillinge, Sweden (2625): visibility: 08.12.2019 06:00:00 - 14.12.2019 06:00:00 (CET)Skillinge, Sweden (2625): precipitation: 08.12.2019 06:00:00 - 14.12.2019 06:00:00 (CET)
Date & Time tt [°C] td [°C] ff [km/h] ff [kn] fx [km/h] fx [kn] dd ppp [hPa] vv [km] rr [mm]
14.12.2019 06:00:00 4,2 2,2 18 10 32 18 SSE 982,8 8 0,1
14.12.2019 05:00:00 4,6 1,6 14 8 31 17 SSE 983,0 10 0,0
14.12.2019 04:00:00 5,0 -0,2 19 10 32 18 S 983,5 29 0,0
14.12.2019 03:00:00 5,0 0,4 16 9 31 17 S 983,6 26 0,0
14.12.2019 02:00:00 5,1 1,2 21 11 33 18 S 984,0 16 0,0
14.12.2019 01:00:00 5,0 0,6 25 13 34 18 S 984,2 20 0,0
14.12.2019 00:00:00 5,2 1,1 22 12 32 17 S 984,6 18 0,0
13.12.2019 23:00:00 5,3 1,2 14 8 32 18 SSE 984,8 21 0,0
13.12.2019 22:00:00 5,3 0,9 16 9 29 16 S 984,8 21 0,0
13.12.2019 21:00:00 5,3 2,5 21 12 32 17 SE 984,8 18 0,0
13.12.2019 20:00:00 5,2 2,5 25 13 35 19 SE 985,2 18 0,0
13.12.2019 19:00:00 5,3 2,6 28 15 37 20 SE 985,6 12 0,0
13.12.2019 18:00:00 5,3 2,6 28 15 36 19 SE 985,7 10 0,0
13.12.2019 17:00:00 5,1 1,9 26 14 40 22 SE 986,1 11 0,0
13.12.2019 16:00:00 5,2 3,1 26 14 38 21 SE 986,2 10 0,0
13.12.2019 15:00:00 5,5 3,3 33 18 40 22 ESE 986,4 11 0,0
13.12.2019 14:00:00 5,2 3,4 29 16 39 21 SE 986,7 10 0,0
13.12.2019 13:00:00 4,9 3,1 30 16 40 21 ESE 987,3 10 0,0
13.12.2019 12:00:00 5,0 2,5 34 18 44 24 ESE 988,1 12 0,0
13.12.2019 11:00:00 5,2 2,7 33 18 40 22 ESE 988,6 14 0,0
13.12.2019 10:00:00 4,9 2,5 26 14 37 20 ESE 989,9 15 0,0
13.12.2019 09:00:00 4,8 2,5 28 15 40 21 SE 990,3 15 0,0
13.12.2019 08:00:00 4,9 2,8 32 17 42 23 SE 990,7 14 0,0
13.12.2019 07:00:00 5,2 3,2 27 15 41 22 SE 991,1 18 0,0
13.12.2019 06:00:00 5,2 2,5 17 9 40 22 SSE 991,8 25 0,0
13.12.2019 05:00:00 5,4 2,9 18 10 39 21 SSE 992,5 28 0,0
13.12.2019 04:00:00 5,5 3,1 25 13 39 21 S 993,3 23 0,0
13.12.2019 03:00:00 5,5 3,0 25 13 38 20 S 993,9 15 0,0
13.12.2019 02:00:00 5,4 3,1 29 16 37 20 S 994,6 19 0,0
13.12.2019 01:00:00 5,5 3,5 28 15 37 20 S 995,4 22 0,0
13.12.2019 00:00:00 5,4 3,4 29 16 39 21 SSW 996,0 23 0,0
12.12.2019 23:00:00 5,3 3,5 31 17 41 22 SSW 996,5 11 0,1
12.12.2019 22:00:00 5,4 3,3 29 16 44 24 SSW 996,9 24 0,0
12.12.2019 21:00:00 5,5 3,8 32 18 43 23 SSW 997,2 15 0,0
12.12.2019 20:00:00 5,4 3,9 21 11 36 20 SW 997,4 12 0,0
12.12.2019 19:00:00 5,1 3,4 25 14 35 19 SW 997,7 12 0,0
12.12.2019 18:00:00 3,9 3,0 6 3 29 16 WSW 997,7 14 0,6
12.12.2019 17:00:00 4,7 3,2 18 10 28 15 SW 997,9 9 0,0
12.12.2019 16:00:00 4,9 2,8 14 7 21 11 WSW 997,9 19 0,0
12.12.2019 15:00:00 5,0 4,3 13 7 24 13 SW 998,0 16 0,0
12.12.2019 14:00:00 4,6 4,0 17 9 23 13 SW 998,0 7 0,0
12.12.2019 13:00:00 3,9 2,9 10 6 18 10 SW 998,5 15 0,0
12.12.2019 12:00:00 3,8 2,6 9 5 13 7 SW 998,7 50 0,0
12.12.2019 11:00:00 3,3 2,4 7 4 14 8 WSW 999,1 50 0,0
12.12.2019 10:00:00 2,9 2,0 9 5 18 10 SW 999,6 28 0,4
12.12.2019 09:00:00 2,8 2,1 10 6 18 10 WSW 999,6 33 0,4
12.12.2019 08:00:00 3,1 2,2 11 6 19 10 WSW 999,8 9 0,3
12.12.2019 07:00:00 3,3 2,1 12 6 19 10 SW 1000,0 43 0,0
12.12.2019 06:00:00 3,5 2,5 12 6 25 14 SW 1000,2 18 0,6
12.12.2019 05:00:00 3,6 2,7 9 5 23 13 WSW 1000,6 20 0,6
12.12.2019 04:00:00 4,1 2,7 21 11 31 17 SSW 1001,2 12 0,8
12.12.2019 03:00:00 4,2 3,0 17 9 24 13 SSW 1001,8 11 0,4
12.12.2019 02:00:00 3,8 2,5 21 12 29 15 SSW 1002,6 11 0,8
12.12.2019 01:00:00 3,8 2,5 18 10 25 14 SSW 1003,1 14 0,7
12.12.2019 00:00:00 4,0 2,7 23 12 26 14 SSW 1003,7 10 0,7
11.12.2019 23:00:00 4,4 3,1 23 12 28 15 S 1004,0 13 0,4
11.12.2019 22:00:00 4,4 3,3 16 9 23 12 SSW 1004,5 12 0,4
11.12.2019 21:00:00 4,2 3,3 11 6 21 12 SW 1005,0 11 0,6
11.12.2019 20:00:00 4,5 3,3 17 9 23 12 SSW 1005,3 11 0,5
11.12.2019 19:00:00 4,6 3,6 16 9 26 14 SSW 1005,7 11 0,5
11.12.2019 18:00:00 4,8 3,3 19 10 27 14 SSW 1005,9 26 0,5
11.12.2019 17:00:00 4,9 4,2 19 10 29 16 SW 1006,2 13 0,9
11.12.2019 16:00:00 4,9 4,2 22 12 30 16 SW 1006,5 16 0,4
11.12.2019 15:00:00 4,8 4,2 22 12 33 18 SW 1006,7 15 0,2
11.12.2019 14:00:00 4,8 4,2 26 14 35 19 SSW 1007,0 4,1 0,2
11.12.2019 13:00:00 4,7 4,1 27 15 38 20 SW 1007,4 5 0,3
11.12.2019 12:00:00 4,7 4,1 28 15 41 22 SW 1007,8 3,6 0,4
11.12.2019 11:00:00 4,6 3,9 26 14 37 20 SW 1008,2 2,6 0,2
11.12.2019 10:00:00 4,5 3,4 32 17 44 24 SW 1008,4 6 0,0
11.12.2019 09:00:00 4,4 2,9 31 17 51 27 SW 1008,2 11 0,0
11.12.2019 08:00:00 4,2 2,7 43 23 56 30 SW 1008,2 10 0,0
11.12.2019 07:00:00 4,7 1,2 39 21 60 32 SW 1008,4 15 0,0
11.12.2019 06:00:00 5,4 1,9 48 26 67 36 SSW 1008,6 19 0,0
11.12.2019 05:00:00 5,2 2,4 54 29 67 36 SSW 1008,9 18 0,0
11.12.2019 04:00:00 5,1 2,7 51 28 68 37 SSW 1009,8 10 0,1
11.12.2019 03:00:00 5,8 1,9 51 27 66 36 SSW 1010,9 21 0,0
11.12.2019 02:00:00 5,8 1,1 50 27 66 36 S 1012,3 25 0,0
11.12.2019 01:00:00 5,6 1,3 49 26 63 34 SSW 1013,5 23 0,0
11.12.2019 00:00:00 5,7 1,8 45 25 56 31 SSW 1014,5 25 0,0
10.12.2019 23:00:00 5,6 2,2 41 22 53 29 SSW 1015,5 23 0,0
10.12.2019 22:00:00 5,5 2,8 40 22 50 27 SSW 1016,5 21 0,0
10.12.2019 21:00:00 5,4 2,9 36 19 46 25 S 1017,3 20 0,0
10.12.2019 20:00:00 5,3 2,5 35 19 44 24 SSW 1017,7 26 0,0
10.12.2019 19:00:00 4,6 1,6 18 10 27 15 SW 1018,6 29 0,0
10.12.2019 18:00:00 2,9 0,1 10 5 13 7 SW 1019,3 50 0,0
10.12.2019 17:00:00 0,3 -2,9 4 2 5 3 SW 1019,7 50 0,0
10.12.2019 16:00:00 -0,8 -3,6 3 1 7 4 WSW 1019,9 50 0,0
10.12.2019 15:00:00 0,7 -3,0 7 4 11 6 W 1020,0 50 0,0
10.12.2019 14:00:00 2,6 -3,9 9 5 17 9 WNW 1019,9 50 0,0
10.12.2019 13:00:00 2,8 -3,1 10 5 19 10 W 1019,4 50 0,0
10.12.2019 12:00:00 2,1 -3,4 13 7 21 12 NW 1019,2 50 0,0
10.12.2019 11:00:00 1,3 -3,4 14 8 21 12 NW 1018,7 50 0,0
10.12.2019 10:00:00 0,2 -3,2 16 9 24 13 WNW 1018,4 50 0,0
10.12.2019 09:00:00 -0,6 -3,6 14 8 21 12 WNW 1017,2 50 0,0
10.12.2019 08:00:00 -0,8 -3,7 14 8 22 12 WNW 1015,4 50 0,0
10.12.2019 07:00:00 -0,2 -3,9 13 7 21 11 NW 1013,8 50 0,0
10.12.2019 06:00:00 0,4 -4,2 16 9 29 16 NW 1012,0 50 0,0
10.12.2019 05:00:00 1,0 -3,7 18 10 31 17 NW 1009,7 50 0,0
10.12.2019 04:00:00 1,4 -2,4 21 11 39 21 NW 1007,9 50 0,0
10.12.2019 03:00:00 2,1 -2,0 28 15 40 22 NW 1005,8 50 0,0
10.12.2019 02:00:00 2,7 -1,3 21 11 40 22 NW 1003,6 50 0,0
10.12.2019 01:00:00 3,0 -0,5 19 10 42 23 WNW 1001,3 50 0,0
10.12.2019 00:00:00 2,9 0,3 24 13 53 29 WNW 999,2 50 0,0
09.12.2019 23:00:00 4,3 1,7 27 15 44 24 W 997,3 47 0,0
09.12.2019 22:00:00 5,0 2,4 22 12 49 26 W 996,7 16 0,0
09.12.2019 21:00:00 6,1 2,2 27 14 44 24 WSW 996,2 17 0,0
09.12.2019 20:00:00 5,9 2,5 24 13 40 22 WSW 995,6 17 0,0
09.12.2019 19:00:00 6,3 3,6 23 12 39 21 WSW 995,0 23 0,0
09.12.2019 18:00:00 6,9 5,1 29 16 53 29 WSW 994,4 29 0,3
09.12.2019 17:00:00 7,2 4,8 34 18 51 28 SW 993,5 14 0,0
09.12.2019 16:00:00 7,2 4,6 32 17 55 30 SW 992,8 22 0,0
09.12.2019 15:00:00 7,3 3,7 37 20 57 31 WSW 992,3 30 0,0
09.12.2019 14:00:00 7,3 3,5 40 21 59 32 WSW 992,0 32 0,0
09.12.2019 13:00:00 7,3 4,3 36 19 56 31 SW 991,6 22 0,0
09.12.2019 12:00:00 7,4 4,5 37 20 62 34 SW 991,3 23 0,5
09.12.2019 11:00:00 6,4 4,2 32 18 51 28 SW 991,6 11 0,1
09.12.2019 10:00:00 6,7 4,4 31 17 51 27 WSW 991,7 8 0,2
09.12.2019 09:00:00 7,0 3,6 32 18 53 28 WSW 990,8 29 0,0
09.12.2019 08:00:00 6,9 3,7 34 19 60 32 WSW 990,2 24 0,0
09.12.2019 07:00:00 7,1 3,9 36 20 56 31 WSW 990,0 24 0,0
09.12.2019 06:00:00 6,9 4,0 32 18 51 28 WSW 989,6 22 0,0
09.12.2019 05:00:00 7,3 4,6 30 16 49 26 WSW 989,5 17 0,0
09.12.2019 04:00:00 7,2 4,8 28 15 49 27 SW 989,4 17 0,0
09.12.2019 03:00:00 7,5 4,5 31 17 52 28 WSW 989,4 20 0,0
09.12.2019 02:00:00 7,4 4,5 34 19 53 29 WSW 989,2 20 0,0
09.12.2019 01:00:00 7,5 4,6 30 16 45 24 WSW 988,9 19 0,0
09.12.2019 00:00:00 6,6 4,1 25 14 47 25 WSW 989,2 28 0,0
08.12.2019 23:00:00 7,0 3,6 30 16 60 33 WSW 989,0 44 0,0
08.12.2019 22:00:00 7,9 5,3 35 19 58 32 WSW 988,7 13 0,0
08.12.2019 21:00:00 7,8 5,3 33 18 46 25 WSW 988,7 14 0,0
08.12.2019 20:00:00 8,1 5,6 29 16 49 27 WSW 988,6 15 0,0
08.12.2019 19:00:00 8,6 6,7 34 18 53 29 WSW 988,1 17 0,0
08.12.2019 18:00:00 8,9 7,5 32 18 69 38 SW 987,8 27 0,0
08.12.2019 17:00:00 8,9 7,5 42 23 64 34 SW 987,3 32 0,0
08.12.2019 16:00:00 8,7 7,8 39 21 62 34 SW 987,3 10 0,6
08.12.2019 15:00:00 7,9 7,3 40 21 60 33 SW 987,9 2,6 1,4
08.12.2019 14:00:00 8,0 6,6 42 23 67 36 SW 988,5 12 0,1
08.12.2019 13:00:00 7,5 6,6 47 25 66 36 SW 989,3 3,5 0,7
08.12.2019 12:00:00 7,1 6,2 45 24 62 33 SW 990,7 2,8 1,5
08.12.2019 11:00:00 7,3 6,1 40 21 63 34 SW 991,9 6 1,2
08.12.2019 10:00:00 7,5 5,7 45 25 63 34 SW 993,3 11 0,1
08.12.2019 09:00:00 7,4 5,9 44 24 63 34 SW 994,7 12 0,7
08.12.2019 08:00:00 7,3 5,9 44 24 61 33 SSW 995,6 6 0,6
08.12.2019 07:00:00 7,2 6,1 38 20 53 29 SW 997,2 7 1,0
08.12.2019 06:00:00 7,5 6,4 30 16 46 25 SW 998,3 10 0,4

tt = temperature
td = dewpoint
ff = wind speed
fx = gusts
dd = wind direction
ppp = reduced air pressure
vv = visibility
rr = precipitation

Next stations